TITAN 3C TRANSTAGE DEB, 20760

Orbit data source: Space-Track

TITAN 3C TRANSTAGE DEB, 20760 is space debris in HEO originally from a launch on Tue, 21 Dec 1965 UTC launched from the Air Force Eastern Test Range (AFETR). Debris objects in space refer to the collection of defunct objects orbiting the Earth. Examples of debris include non-operational satellites, rocket bodies, and fragments generated from explosions, collisions, or faulty payload assembly.

Loading next visibility...
TITAN 3C TRANSTAGE DEB details
Identifier
20760, 1965-108AE
Orbit
HEO
Last TLE update2 months ago
Origin
Flag of USUSAF SSD (US)
ManufacturerUnknown
MissionSpacecraft
Bus & MotorUnknown
MassUnknown
Launch date (UTC)
1965-12-21 (59 years ago)
Launch vehicleUnknown
Launch site
Air Force Eastern Test Range (AFETR)
Object type
Payload
Rocket body
Debris
Shape & HBRUnknown
Radar Cross SectionMedium (>0.1 m² and <1 m²)

Expand to show TLE details & history

TLE from 2 months ago
0 TITAN 3C TRANSTAGE DEB
1 20760U 65108AE  24305.19176953  .00000691  00000-0  49339-2 0  9996
2 20760  26.9617 228.8937 6710371 221.5003 351.8988  2.83757594311709
Epoch: 2024-10-31T04:36Z
Definitive object data (Epoch: 2024-10-31T04:36:08.887Z)
Latitude3.62238°
Longitude-67.19295°
Altitude1,696.47 km
Speed8.934 km/s
True Right ascension02h 47m 17s
True Declination3° 36' 12"
Sunlit
Object was in full shadow at TLE epoch
Visualization TLE readout
Latitude26.28722°
Longitude-161.07806°
Altitude24,723.237 km
Speed2.592 km/s
Apparent Right ascension20h 02m 29s
Apparent Declination17° 19' 56"
Sunlit
Object is in daylight
Visualization observer readout
Local Sidereal Time04:56:41
Azimuth313.234° NW
Elevation-18.256°
Doppler factor1
Orbital elements
Apogee altitude28,845.129 km
Perigee altitude555.969 km
Semi-major axis21,078.686 km
Eccentricity0.6710371
Inclination26.9617°
RAAN228.8937°
Arg. of periapsis221.5003°
True anomaly310.10687°
Mean anomaly351.8988°
Eccentric anomaly336.67662°
Mean motion0.70921 °/min
BSTAR0.0049339
Orbital period507.6 mins
Loading maneuver chart data...

TITAN 3C TRANSTAGE DEB Visibility forecast

Observer location: undefined°, undefined

Span
Click to sort rows by Start time (UTC) header in descending order
Start Az.
Max El. time (UTC)
Max El. Az.
Max El.
End time (UTC)
End Az.
447 mins2024-12-22 17:28:01.230Z233.582° WSW2024-12-22 20:34:01.230Z230.036° WSW42.388°2024-12-23 00:55:01.230Z147.027° SSE
|